This demonstration page uses our WeatherBlox Daily Observations layout. Learn more.

39.08367, -84.50855

Hourly Observations for January 19, 2020

Temp ( °F °C ) Dew Point ( °F °C ) Humidity (%) Winds ( mph kmh ) Pressure ( in mb ) Visibility ( mi km ) Precip ( " mm )
12:27 am 00:27 Cloudy 31 -0.6 21 -6.1 67 67 W 22 35 30.07 1018 10 16.0934 0 0
12:50 am 00:50 Cloudy 30 -1 21 -6 69 69 W 18 30 30.07 1018 10 16.0934 0 0
12:53 am 00:53 Cloudy 31 -0.6 21 -6.1 67 67 W 17 28 30.05 1018 10 16.0934 0 0
1:36 am 01:36 Mostly Cloudy 29 -1.7 18 -7.8 63 63 WNW 22 35 30.09 1019 10 16.0934 0 0
1:53 am 01:53 Mostly Cloudy 28 -2.2 17 -8.3 63 63 W 23 37 30.07 1018 10 16.0934 0 0
2:22 am 02:22 Cloudy 28 -2.2 17 -8.3 63 63 W 21 33 30.1 1019 10 16.0934 0 0
2:53 am 02:53 Cloudy 27 -2.8 16 -8.9 63 63 W 15 24 30.09 1019 10 16.0934 0 0
3:53 am 03:53 Cloudy 27 -2.8 17 -8.3 66 66 W 15 24 30.09 1019 10 16.0934 0 0
4:39 am 04:39 Mostly Cloudy 24 -4.4 11 -11.7 57 57 W 26 43 30.17 1022 10 16.0934 0 0
4:53 am 04:53 Mostly Clear 23 -5 10 -12.2 57 57 W 21 33 30.14 1021 10 16.0934 0 0
5:53 am 05:53 Cloudy 22 -5.6 10 -12.2 60 60 WNW 12 19 30.17 1022 10 16.0934 0 0
6:53 am 06:53 Cloudy 21 -6.1 11 -11.7 65 65 W 15 24 30.19 1022 10 16.0934 0 0
7:53 am 07:53 Cloudy with Light Snow 21 -6.1 11 -11.7 65 65 W 14 22 30.21 1023 10 16.0934 0.001 0.001
8:53 am 08:53 Cloudy 18 -7.8 8 -13.3 65 65 W 15 24 30.25 1025 9 14.48406 0.001 0.001
9:30 am 09:30 Mostly Cloudy 18 -7.8 8 -13.3 65 65 WNW 14 22 30.3 1026 10 16.0934 0 0
9:53 am 09:53 Cloudy 19 -7.2 8 -13.3 62 62 W 16 26 30.27 1025 10 16.0934 0 0
10:53 am 10:53 Cloudy 19 -7.2 9 -12.8 65 65 W 12 19 30.29 1026 10 16.0934 0.001 0.001
11:53 am 11:53 Cloudy with Light Snow 20 -6.7 9 -12.8 62 62 WNW 9 15 30.3 1026 7 11.26538 0.001 0.001
12:53 pm 12:53 Cloudy 20 -6.7 9 -12.8 62 62 NNW 10 17 30.31 1026 8 12.87472 0.001 0.001
1:53 pm 13:53 Cloudy with Light Snow 19 -7.2 9 -12.8 65 65 W 12 19 30.32 1027 5 8.0467 0.001 0.001
2:53 pm 14:53 Cloudy 19 -7.2 8 -13.3 62 62 W 14 22 30.34 1027 9 14.48406 0.001 0.001
3:53 pm 15:53 Cloudy with Snow 18 -7.8 7 -13.9 62 62 W 14 22 30.37 1028 4 6.43736 0.001 0.001
4:53 pm 16:53 Cloudy with Light Snow 17 -8.3 7 -13.9 64 64 WNW 9 15 30.4 1030 5 8.0467 0.001 0.001
5:53 pm 17:53 Cloudy with Light Snow 17 -8.3 7 -13.9 64 64 NW 8 13 30.43 1031 9 14.48406 0.001 0.001
6:53 pm 18:53 Cloudy 17 -8.3 8 -13.3 68 68 W 12 19 30.45 1031 9 14.48406 0.001 0.001
7:53 pm 19:53 Cloudy with Light Snow 17 -8.3 8 -13.3 68 68 WNW 12 19 30.47 1032 8 12.87472 0.001 0.001
8:53 pm 20:53 Cloudy 17 -8.3 8 -13.3 68 68 NW 10 17 30.49 1032 10 16.0934 0.001 0.001
9:53 pm 21:53 Cloudy 16 -8.9 7 -13.9 67 67 NNW 12 19 30.49 1033 9 14.48406 0 0
10:12 pm 22:12 Cloudy with Light Snow 16 -8.9 7 -13.9 67 67 WNW 8 13 30.52 1033 6 9.65604 0.001 0.001
10:53 pm 22:53 Cloudy 16 -8.9 8 -13.3 71 71 VRB 5 7 30.5 1033 10 16.0934 0.001 0.001
11:53 pm 23:53 Cloudy 16 -8.9 8 -13.3 71 71 NW 9 15 30.5 1033 10 16.0934 0 0

Powered by AerisWeather